EHI
0 0 0 0 0 0 0 0 0 0 0 0 0 0 0 0 0 0 0 0 0 0 0 0 0 0 0 0 0 0 0 0 0 0 0 0 0 0 0 0 0 0 0
0 0 0 0 0 0 0 0 0 0 0 0 0 0 0 0 0 0 0 0 0 0 0 0 0 0 0 0 0 0 0 0 0 0 0 0 0 0 0 1 0 0 0
0 0 0 0 0 0 0 0 0 0 0 0 0 0 0 0 0 0 0 0 0 0 0 0 0 0 0 0 0 0 0 0 0 0 0 0 0 0 1 2 1 0 0
0 0 0 0 0 0 0 0 0 0 0 0 0 0 0 0 0 0 0 0 0 0 0 0 0 0 0 0 0 0 0 0 0 0 0 0 0 0 0 1 0 0 0
0 0 0 0 0 0 0 0 0 0 0 0 0 0 0 0 0 0 0 0 0 0 0 0 0 0 0 0 0 0 0 0 0 0 0 0 0 0 0 0 0 0 0
0 0 0 0 0 0 0 0 0 0 0 0 0 0 0 0 0 0 0 0 0 0 0 0 0 0 0 0 0 0 0 0 0 0 0 0 0 0 0 0 0 0 0
0 0 0 0 0 0 0 0 0 0 0 0 0 0 0 0 0 0 0 0 0 0 0 0 0 0 0 0 0 0 0 0 0 0 0 0 0 0 0 0 0 0 0
0 0 0 0 0 0 0 0 0 0 0 0 0 0 0 0 0 0 0 0 0 0 0 0 0 0 0 0 0 0 0 0 0 0 0 0 0 0 0 0 0 0 0
0 0 0 0 0 0 0 0 0 0 0 0 0 0 0 0 0 0 0 0 0 0 0 0 0 0 0 0 0 0 0 0 0 0 0 0 0 0 0 0 0 0 0
0 0 0 0 0 0 0 0 0 0 0 0 0 0 0 0 0 0 0 0 0 0 0 0 0 0 0 0 0 0 0 0 0 0 0 0 0 0 0 0 0 0 0
0 0 0 0 0 0 0 0 0 0 0 0 0 0 0 0 0 0 0 0 0 0 0 0 0 0 0 0 0 0 0 0 0 0 0 0 0 0 0 0 0 0 0
0 0 0 0 0 0 0 0 0 0 0 0 0 0 0 0 0 0 0 0 0 0 0 0 0 0 0 0 0 0 0 0 0 0 0 0 0 0 0 0 0 0 0
0 0 0 0 0 0 0 0 0 0 0 0 0 0 0 0 0 0 0 0 0 0 0 0 0 0 0 0 0 0 0 0 0 0 0 0 0 0 0 0 0 0 0
0 0 0 0 0 0 0 0 0 0 0 0 0 0 0 0 0 0 0 0 0 0 0 0 0 0 0 0 0 0 0 0 0 0 0 0 0 0 0 0 0 0 0
0 0 0 0 0 0 0 0 0 0 0 0 0 0 0 0 0 0 0 0 0 0 0 0 0 0 0 0 0 0 0 0 0 0 0 0 0 0 0 0 0 0 0
0 0 0 0 0 0 0 0 0 0 0 0 0 0 0 0 0 0 0 0 0 0 0 0 0 0 0 0 0 0 0 0 0 0 0 0 0 0 0 0 0 0 0
0 0 0 0 0 0 0 0 0 0 0 0 0 0 0 0 0 0 0 0 0 0 0 0 0 0 0 0 0 0 0 0 0 0 0 0 0 0 0 0 0 0 0
0 0 0 0 0 0 0 0 0 0 0 0 0 0 0 0 0 0 0 0 0 0 0 0 0 0 0 0 0 0 0 0 0 0 0 0 0 0 0 0 0 0 0
0 0 0 0 0 0 0 0 0 0 0 0 0 0 0 0 0 0 0 0 0 0 0 0 0 0 0 0 0 0 0 0 0 0 0 0 0 0 0 0 0 0 0
0 0 0 0 0 0 0 0 0 0 0 0 0 0 0 0 0 0 0 0 0 0 0 0 0 0 0 0 0 0 0 0 0 0 0 0 0 0 0 0 0 0 0
0 0 0 0 0 0 0 0 0 0 0 0 0 0 0 0 0 0 0 0 0 0 0 0 0 0 0 0 0 0 0 0 0 0 0 0 0 0 0 0 0 0 0
0 0 0 0 0 0 0 0 0 0 0 0 0 0 0 0 0 0 0 0 0 0 0 0 0 0 0 0 0 0 0 0 0 0 0 0 0 0 0 0 0 0 0
0 0 0 0 0 0 0 0 0 0 0 0 0 0 0 0 0 0 0 0 0 0 0 0 0 0 0 0 0 0 0 0 0 0 0 0 0 0 0 0 0 0 0
0 0 0 0 0 0 0 0 0 0 0 0 0 0 0 0 0 0 0 0 0 0 0 0 0 0 0 0 0 0 0 0 0 0 0 0 0 0 0 0 0 0 0
0 0 0 0 0 0 0 0 0 0 0 0 0 0 0 0 0 0 0 0 0 0 0 0 0 0 0 0 0 0 0 0 0 0 0 0 0 0 0 0 0 0 0
0 0 0 0 0 0 0 0 0 0 0 0 0 0 0 0 0 0 0 0 0 0 0 0 0 0 0 0 0 0 0 0 0 0 0 0 0 0 0 0 0 0 0
Wind_Speed
7 6 7 9 6 4 4 4 4 3 3 5 4 4 2 3 4 3 3 3 5 5 5 5 6 6 4 4 4 3 2 2 3 3 3 3 3 4 2 2 3 3 1
5 8 9 9 6 4 4 4 3 4 4 4 4 3 2 3 3 4 5 6 7 7 6 6 6 5 4 4 3 3 3 2 2 3 3 2 2 3 3 2 3 3 2
6 7 7 8 6 4 5 5 5 6 6 5 5 4 4 3 3 5 6 6 6 6 6 6 5 5 4 4 5 4 4 3 2 2 2 1 2 2 3 2 3 3 3
4 5 5 6 6 4 6 7 7 7 6 5 4 4 4 4 5 5 6 6 5 5 5 4 4 3 3 4 5 5 6 6 4 3 2 2 2 2 2 2 2 2 2
3 3 3 3 4 4 6 8 7 6 6 5 5 5 5 5 5 5 5 6 6 5 5 5 5 6 4 3 3 5 5 5 4 4 3 3 4 4 3 2 1 2 2
2 2 3 3 3 4 5 7 6 6 5 6 6 5 6 5 7 8 7 6 6 6 6 6 6 8 7 7 6 5 5 5 5 4 4 4 5 5 5 3 0 1 1
3 2 2 4 3 5 7 8 6 5 5 6 5 5 6 4 7 11 10 6 6 5 5 6 7 7 7 6 7 9 9 8 6 4 4 4 5 5 6 5 3 2 1
4 4 3 3 5 5 7 7 6 5 6 5 4 4 5 4 6 12 10 6 5 4 5 5 6 6 7 6 6 9 8 8 8 5 4 5 4 5 4 2 2 3 4
3 3 3 3 5 6 4 3 4 5 5 5 5 5 5 5 4 9 7 4 4 5 6 6 7 7 10 11 9 9 9 8 7 6 5 5 6 6 7 4 3 3 3
3 3 3 4 4 4 4 1 1 5 5 6 6 5 6 6 6 4 5 3 4 4 5 6 8 8 9 11 8 7 8 8 8 9 9 10 10 10 10 7 4 2 1
3 2 3 3 3 3 3 2 4 7 8 6 7 5 5 5 6 6 5 3 4 4 4 4 5 7 9 9 8 6 4 6 5 5 5 6 7 8 8 7 5 4 3
3 3 3 4 4 3 3 3 5 9 8 6 6 5 4 4 7 8 10 8 4 4 4 3 3 5 7 7 7 7 7 5 5 6 6 6 7 7 8 7 5 4 3
5 4 3 3 3 3 3 3 5 7 7 5 5 5 3 3 4 8 11 10 7 4 3 3 4 6 6 5 8 8 7 6 6 7 7 6 6 6 7 7 6 3 1
5 4 3 3 3 3 4 3 4 6 5 4 5 5 4 3 4 4 5 5 6 4 4 5 4 4 6 6 5 6 6 5 5 6 5 6 7 8 9 8 6 7 6
7 5 4 4 4 4 3 2 3 4 6 7 6 5 5 4 3 4 4 3 2 2 2 2 3 4 5 5 4 5 5 6 6 5 5 6 6 7 8 9 7 7 8
7 6 5 5 4 3 4 5 7 3 6 7 9 7 4 4 7 6 4 3 2 1 2 2 3 3 3 3 4 4 6 6 6 6 6 5 5 6 6 6 7 7 8
8 7 7 6 5 4 4 5 5 5 7 7 9 9 7 6 7 5 3 2 2 2 2 2 2 2 2 1 2 3 3 4 4 5 5 5 5 5 6 6 6 6 7
8 8 8 7 6 6 6 5 5 6 5 4 3 3 5 7 5 5 5 3 1 1 2 2 2 2 2 1 1 1 2 3 4 5 5 6 6 5 6 6 7 7 7
8 7 7 7 7 7 6 6 5 5 4 4 3 2 3 5 4 4 4 2 2 2 3 4 3 3 3 2 1 0 1 2 3 4 4 5 5 5 6 6 6 6 7
9 9 8 7 7 7 6 6 6 6 5 5 5 5 5 4 3 3 3 3 3 3 4 5 4 4 3 2 2 2 1 1 0 2 3 3 4 4 5 6 6 6 7
9 9 10 8 7 7 7 8 7 7 7 6 7 6 8 7 6 5 4 4 5 5 5 5 5 5 4 4 4 4 3 2 1 0 1 2 3 4 4 4 5 5 6
9 9 9 9 8 8 8 8 8 7 8 8 8 7 8 7 6 6 6 6 6 6 5 5 5 5 5 5 5 5 5 4 3 2 1 2 3 3 4 4 5 5 5
10 10 10 9 8 8 7 7 7 7 8 9 9 7 7 7 7 8 8 8 7 6 5 6 6 7 6 5 5 6 6 5 4 3 2 1 2 3 4 4 4 5 6
12 12 12 10 9 9 8 8 8 8 8 8 8 8 8 7 8 9 9 8 7 6 6 6 7 9 8 7 6 6 5 4 3 4 3 1 1 2 3 4 4 5 6
12 12 12 11 11 10 10 9 8 8 8 8 8 8 8 8 8 8 8 7 8 7 6 6 6 8 11 10 9 7 5 5 5 4 3 2 1 1 3 4 4 5 6
13 13 12 11 11 10 10 10 10 10 9 9 9 9 9 9 9 9 8 7 8 8 7 6 7 10 10 9 9 8 7 7 6 5 4 2 2 1 2 3 5 5 6
Wind_Direction
179 169 155 127 131 151 141 122 116 106 104 105 98 84 49 18 23 14 5 10 30 23 27 47 47 41 25 13 351 324 299 227 244 256 238 255 267 276 228 202 220 213 245
177 155 143 121 124 111 89 75 73 77 80 83 84 75 42 20 20 21 19 21 30 33 38 46 41 49 49 42 11 353 324 310 257 279 276 266 267 265 246 215 221 220 208
160 130 127 129 127 119 89 68 66 75 69 65 70 66 50 43 44 42 51 53 56 45 33 33 24 36 41 30 19 1 336 330 310 285 307 320 290 299 281 244 222 220 217
139 127 119 129 136 144 111 99 95 98 100 97 85 68 45 39 49 53 71 76 57 40 23 14 16 19 21 19 13 5 357 354 357 339 336 304 296 314 296 271 234 211 209
58 117 150 144 143 147 117 112 107 98 98 96 79 62 51 45 49 67 85 77 49 37 20 12 26 34 37 17 1 7 5 1 4 11 0 352 348 331 305 273 228 175 209
58 110 177 163 151 122 123 116 103 96 85 73 63 60 57 48 61 82 90 82 64 50 29 4 17 27 23 22 21 30 34 24 15 17 12 2 344 335 326 327 258 166 206
104 116 140 141 128 103 122 126 126 111 97 77 66 75 74 64 90 95 94 88 68 47 33 19 29 26 23 14 14 31 42 44 32 9 10 1 334 335 330 355 8 29 46
91 90 91 89 101 111 120 133 140 123 107 86 58 60 75 62 101 101 90 78 67 49 40 31 39 39 25 14 24 33 28 26 16 12 359 345 334 327 329 339 3 39 43
119 96 97 104 91 90 103 140 141 120 105 84 56 58 70 49 60 101 93 78 69 54 42 34 33 33 16 23 35 29 25 12 2 25 23 4 350 360 1 1 29 58 84
156 128 118 111 115 137 142 140 96 109 110 99 80 64 74 62 33 83 96 88 73 62 47 32 35 34 25 28 37 30 26 353 350 21 16 10 5 13 24 17 347 6 105
145 124 119 133 129 141 130 94 106 112 106 96 85 63 64 74 61 65 86 92 94 87 71 42 18 36 48 34 33 32 359 322 346 32 26 16 11 15 10 2 354 332 332
144 157 166 147 134 134 118 102 113 115 113 111 105 87 56 63 75 72 71 70 78 83 63 38 14 25 63 48 31 20 14 10 11 22 25 20 17 12 351 339 343 345 347
160 172 161 118 112 106 110 123 124 135 140 143 132 132 139 115 96 82 71 61 54 58 49 33 13 26 37 38 21 22 37 38 27 21 16 7 352 344 338 340 355 5 341
157 158 143 139 140 111 105 128 141 153 149 148 151 152 153 139 117 96 80 63 49 37 16 15 21 25 43 35 21 30 42 47 46 33 14 4 0 6 13 10 4 3 9
162 161 153 139 135 115 100 120 166 167 172 166 165 160 158 138 132 117 106 95 58 9 12 10 26 43 53 52 55 50 49 50 49 40 29 27 25 25 25 17 17 24 32
167 170 163 147 133 130 128 88 48 91 138 151 150 148 130 130 145 146 148 119 62 51 70 68 75 74 78 70 65 55 43 39 34 29 29 24 29 30 26 31 34 35 28
173 170 165 159 151 152 147 139 119 81 81 116 141 141 133 141 151 161 170 110 60 83 112 125 125 128 114 82 58 48 35 17 12 17 19 14 7 9 10 12 23 31 34
170 165 167 169 166 169 169 164 151 144 137 119 122 133 137 128 143 164 154 135 95 98 158 184 186 177 184 185 104 43 28 21 30 27 21 15 15 16 18 13 11 11 10
171 171 171 175 177 174 173 168 164 162 163 158 161 180 138 121 120 131 153 182 189 191 193 205 203 191 199 203 182 121 40 45 41 27 21 19 20 20 17 8 359 357 356
179 176 174 178 177 178 179 176 174 177 182 187 198 194 157 152 176 176 181 191 204 211 205 208 208 203 207 213 207 199 207 232 10 26 25 18 18 22 20 15 14 8 5
179 180 181 185 189 189 191 195 192 188 193 202 221 208 178 187 209 206 204 206 216 220 216 219 218 214 207 209 205 207 217 231 226 250 348 354 359 7 11 6 3 2 358
179 182 185 193 194 191 195 198 198 200 205 211 226 219 183 206 221 211 210 217 220 221 225 228 233 230 218 210 209 210 219 224 219 221 254 323 344 352 356 357 355 351 350
183 185 188 195 197 197 195 194 194 200 209 215 222 211 195 209 214 215 215 218 215 210 213 220 231 234 224 213 215 215 220 225 220 209 222 282 336 349 348 348 349 344 343
189 190 191 195 198 198 201 202 205 209 214 219 218 211 207 209 212 217 218 216 211 207 205 212 218 228 224 218 219 219 222 218 201 193 199 234 322 338 334 336 336 332 330
195 195 195 196 196 199 202 206 209 212 213 215 214 214 214 212 216 222 220 215 213 208 210 214 211 219 225 222 220 216 199 182 180 173 174 188 234 319 327 331 333 333 332
200 203 203 200 197 197 200 202 206 209 211 213 213 213 216 217 220 223 216 207 211 206 209 216 215 214 218 215 208 193 171 168 169 168 171 183 214 271 317 325 329 328 326